Weather History for Cedar Rapids, IA

Change the Weather History Date:

Friday, June 28, 2013

  Actual Average Record
Temperature  
Mean Temperature 74 °F 72 °F  
Max Temperature 83 °F 83 °F 103 °F (1931)
Min Temperature 64 °F 62 °F 40 °F (1925)
Degree Days  
Heating Degree Days 0 0  
Month to date heating degree days 28 29  
Since 1 June heating degree days 28 29  
Since 1 July heating degree days 6997 6866  
Cooling Degree Days 9 8  
Month to date cooling degree days 164 151  
Year to date cooling degree days 238 200  
Since 1 June cooling degree days 164 151  
Growing Degree Days 23 (Base 50)    
Moisture  
Dew Point 59 °F    
Average Humidity 66    
Maximum Humidity 87    
Minimum Humidity 45    
Precipitation  
Precipitation 0.00 in 0.18 in 1.31 in (2003)
Month to date precipitation 5.73 4.58  
Year to date precipitation 25.92 16.02  
Sea Level Pressure  
Sea Level Pressure 29.75 in    
Wind  
Wind Speed 15 mph (NW)    
Max Wind Speed 29 mph    
Max Gust Speed 39 mph    
Visibility 10 miles    
Events      
T = Trace of Precipitation, MM = Missing Value Source: NWS Daily Summary

Daily Weather History Graph

Daily Weather History Graph

Search for Another Location

Airport:

Trip Planner

Search our weather history database for the weather conditions in past years. The results will help you decide how hot, cold, wet, or windy it might be!

Date:

Astronomy

Jun. 28, 2013 Rise Set
Actual Time 5:34 AM CDT 8:46 PM CDT
Civil Twilight 4:59 AM CDT 9:20 PM CDT
Nautical Twilight 4:15 AM CDT 10:04 PM CDT
Astronomical Twilight 3:22 AM CDT 10:57 PM CDT
Moon No Moon Rise 11:48 AM CDT (6/28)
Length of Visible Light 16h 20m
Length of Day
15h 11m
Waning Gibbous, 66% of the Moon is Illuminated
Jun 28
Waning Gibbous
Jun 29
Last Quarter
Jul 8
New
Jul 15
First Quarter
Jul 22
Full

Hourly Weather History & Observations

Time (CDT) Temp. Heat Index Dew Point Humidity Pressure Visibility Wind Dir Wind Speed Gust Speed Precip Events Conditions
12:52 AM 66.9 °F - 62.1 °F 84% 29.82 in 10.0 mi WNW 6.9 mph - N/A   Clear
1:52 AM 66.0 °F - 60.1 °F 81% 29.80 in 10.0 mi WNW 6.9 mph - N/A   Clear
2:52 AM 66.0 °F - 59.0 °F 78% 29.79 in 10.0 mi WNW 8.1 mph - N/A   Clear
3:52 AM 66.0 °F - 59.0 °F 78% 29.78 in 10.0 mi WNW 9.2 mph - N/A   Clear
4:52 AM 64.9 °F - 57.9 °F 78% 29.77 in 10.0 mi WNW 8.1 mph - N/A   Clear
5:52 AM 64.0 °F - 57.9 °F 80% 29.77 in 10.0 mi WNW 6.9 mph - N/A   Clear
6:52 AM 66.9 °F - 59.0 °F 76% 29.78 in 10.0 mi WNW 8.1 mph - N/A   Clear
7:52 AM 71.1 °F - 60.1 °F 68% 29.80 in 10.0 mi NW 10.4 mph - N/A   Clear
8:52 AM 73.9 °F - 61.0 °F 64% 29.80 in 10.0 mi NW 12.7 mph - N/A   Clear
9:52 AM 75.9 °F - 60.1 °F 58% 29.78 in 10.0 mi NW 13.8 mph 24.2 mph N/A   Clear
10:52 AM 78.1 °F - 59.0 °F 52% 29.77 in 10.0 mi WNW 21.9 mph 28.8 mph N/A   Clear
11:52 AM 80.1 °F 80.4 °F 57.0 °F 45% 29.76 in 10.0 mi NW 24.2 mph 31.1 mph N/A   Partly Cloudy
12:52 PM 81.0 °F 81.3 °F 59.0 °F 47% 29.75 in 10.0 mi NW 21.9 mph 28.8 mph N/A   Partly Cloudy
1:52 PM 82.0 °F 82.1 °F 59.0 °F 45% 29.74 in 10.0 mi NW 26.5 mph 33.4 mph N/A   Scattered Clouds
2:52 PM 82.9 °F 82.8 °F 59.0 °F 44% 29.73 in 10.0 mi NW 21.9 mph 34.5 mph N/A   Scattered Clouds
3:52 PM 81.0 °F 81.0 °F 57.0 °F 44% 29.72 in 10.0 mi NNW 27.6 mph 32.2 mph N/A   Scattered Clouds
4:52 PM 81.0 °F 81.1 °F 57.9 °F 45% 29.71 in 10.0 mi NW 20.7 mph 31.1 mph N/A   Clear
5:52 PM 80.1 °F 80.7 °F 59.0 °F 48% 29.71 in 10.0 mi NW 19.6 mph 33.4 mph N/A   Partly Cloudy
6:52 PM 78.1 °F - 59.0 °F 52% 29.71 in 10.0 mi NNW 20.7 mph 34.5 mph N/A   Mostly Cloudy
7:52 PM 75.9 °F - 57.9 °F 54% 29.71 in 10.0 mi NNW 15.0 mph - N/A   Partly Cloudy
8:52 PM 72.0 °F - 60.1 °F 66% 29.72 in 10.0 mi NW 10.4 mph - N/A   Clear
9:52 PM 70.0 °F - 60.1 °F 71% 29.72 in 10.0 mi NW 9.2 mph - N/A   Clear
10:52 PM 69.1 °F - 59.0 °F 70% 29.72 in 10.0 mi NNW 10.4 mph - N/A   Mostly Cloudy
11:52 PM 66.9 °F - 61.0 °F 81% 29.70 in 10.0 mi NW 8.1 mph - N/A   Scattered Clouds